C/2008 E3 ( Garradd )

Japanese version
Home page
Total 5,708 html files since Dec. 4, 1995
Updated on May 15, 2008

---------------------------------------------------------------------

* Profile

Discovery Date March 5, 2008
Magnitude 17.8 mag
Discoverer G. J. Garradd (Siding Spring)

* Orbital Elements

T 2008 Aug. 1.3169 TT                                   MPC
q   5.532246             (2000.0)            P               Q
                   Peri.  217.9974      +0.0587689      -0.3635748
                   Node   105.6725      -0.4993413      +0.7957289
e   1.0            Incl.  105.0699      -0.8644099      -0.4843850
From 49 observations 2008 Mar. 5-May 9.

* Finding Charts

* Magnitudes Graph

        m1 = 6.5 + 5 log d + 10.0 log r

---------------------------------------------------------------------

The orbital elements are published on M.P.E.C. 2008-J52.
The charts are made with StellaNavigator Ver.8 (AstroArts).
The magnitudes graphs are made with Comet for Windows.

---------------------------------------------------------------------

Copyright(C) 1995-2007 Seiichi Yoshida (comet@aerith.net). All rights reserved.